Wind_Speed
15 14 15 16 16 13 11 10 7 4 3 2 2 5 7 8 8 9 9 10 11 11 12 12 12 12 12 11 11 10 10 10 10 9 8 7 6 5 5 4 4 4
17 16 17 17 16 14 12 11 9 7 5 4 4 6 7 7 8 8 9 10 10 11 11 11 11 11 11 12 12 11 11 11 11 10 9 9 8 7 6 6 5 4
19 19 18 17 15 15 14 12 10 9 7 6 5 5 5 5 5 6 6 7 8 8 9 9 9 9 9 10 10 11 11 11 12 11 10 10 10 9 8 8 7 6
23 22 20 19 17 16 16 14 12 11 9 9 7 6 5 4 4 4 4 4 5 5 5 5 5 5 6 6 7 8 9 9 10 10 9 9 9 8 8 8 7 7
24 25 25 24 21 19 17 16 14 13 12 12 9 8 7 6 6 5 4 4 3 3 3 2 2 2 3 3 3 4 4 5 5 5 5 6 5 5 5 5 5 5
23 25 27 26 24 21 19 18 17 15 14 14 13 12 11 10 8 8 7 6 5 4 2 1 0 1 2 2 3 3 2 2 1 1 1 1 2 2 3 4 4 4
23 24 25 25 24 23 22 21 20 18 15 15 15 15 15 13 11 10 10 9 8 7 5 4 3 3 3 3 3 4 5 5 5 5 4 4 4 4 5 5 5 6
19 22 25 26 25 24 24 23 21 20 18 16 17 18 18 17 16 15 14 13 12 10 9 8 7 7 8 7 7 7 8 8 8 8 9 8 8 8 9 9 9 9
14 18 22 25 26 25 25 24 22 21 19 19 19 19 20 20 19 18 18 17 16 13 12 12 11 11 11 10 10 10 10 10 10 11 12 12 11 11 12 12 12 12
11 14 18 23 25 26 26 25 23 22 21 21 20 21 21 21 21 21 21 21 19 16 15 15 15 13 13 12 12 13 13 13 13 13 14 15 14 14 14 14 14 14
10 13 17 21 24 26 26 26 24 23 23 22 20 21 22 23 23 24 24 24 23 19 18 18 18 17 16 15 14 14 14 14 14 15 16 17 18 18 18 17 16 16
12 15 16 17 20 23 25 27 26 24 24 23 23 22 23 23 25 25 25 25 25 23 21 22 22 21 21 20 18 15 14 14 14 15 16 18 19 20 21 21 21 20
14 16 16 16 18 20 23 26 27 26 25 25 25 25 24 24 25 26 26 26 27 27 26 26 25 23 21 21 19 16 14 13 14 15 16 17 17 18 20 21 20 20
16 17 16 16 17 18 20 24 26 26 26 27 26 25 25 25 25 25 26 26 28 28 27 24 23 21 20 19 18 16 15 14 14 15 16 16 16 17 18 18 18 17
16 17 16 15 14 14 16 20 23 25 26 26 26 25 24 24 24 25 25 25 26 25 23 21 21 21 20 18 16 16 15 15 15 16 17 17 17 18 19 19 20 19
15 16 16 16 15 14 15 17 19 22 24 25 25 23 21 21 21 21 20 19 20 20 20 20 19 19 17 16 16 16 16 16 16 16 17 18 19 19 20 21 21 19
15 16 16 16 16 15 15 17 18 19 21 22 22 21 19 18 17 14 12 13 14 16 16 16 16 15 15 15 16 16 17 17 17 18 18 19 20 21 22 23 23 20
16 16 16 17 17 16 16 17 18 18 19 20 19 19 17 16 14 12 11 12 13 14 15 15 15 16 16 16 17 18 18 19 20 21 22 22 23 23 24 25 26 25
16 17 17 17 18 18 17 17 18 18 19 18 18 18 17 16 15 15 15 15 15 16 17 17 18 18 19 19 20 21 21 22 23 24 24 25 25 26 26 27 28 28
17 18 18 18 18 18 19 19 19 19 19 19 18 18 18 18 18 18 18 18 18 19 20 20 20 21 21 22 23 24 24 25 26 26 26 27 27 27 28 28 28 28
19 19 19 18 18 18 19 19 19 19 19 19 19 19 20 20 20 20 19 19 20 20 21 21 21 22 22 23 24 25 26 26 27 27 28 28 28 28 28 28 29 29
22 22 22 21 20 20 19 19 19 19 19 20 20 21 21 21 20 20 20 21 21 21 22 22 23 23 24 25 26 26 27 27 27 28 28 28 28 29 29 29 30 30
25 26 25 23 22 21 20 19 19 19 19 19 20 20 20 21 21 21 21 21 22 22 23 23 24 25 26 26 27 27 28 28 28 28 28 27 28 28 29 29 30 31
26 28 28 26 24 23 21 20 19 18 18 18 19 20 20 21 22 22 22 23 23 23 24 25 25 26 27 27 28 28 28 29 29 28 28 28 28 28 29 30 31 31
20 21 22 23 24 25 25 25 23 21 19 19 20 21 21 22 23 24 24 24 25 25 26 26 27 27 28 28 29 29 30 30 30 29 29 29 29 29 29 29 30 31
17 17 18 18 18 20 23 27 28 27 25 24 24 24 24 24 25 26 26 27 27 27 27 28 29 29 30 30 30 31 31 31 31 31 31 30 30 30 30 30 31 32
Wind_Direction
232 238 247 251 257 259 258 266 271 275 284 261 149 113 104 97 94 93 93 91 89 87 85 83 81 81 82 81 80 79 78 76 71 63 57 49 39 27 15 4 354 343
232 238 245 253 257 258 260 259 251 249 254 229 170 130 116 109 106 102 99 98 94 92 88 84 82 79 78 79 78 78 76 76 74 71 68 64 57 51 43 34 24 11
232 234 241 249 252 256 259 251 247 259 250 217 192 158 139 130 124 115 107 103 97 94 90 87 85 80 78 76 74 74 73 71 71 69 69 69 64 60 57 52 46 37
232 231 236 244 248 255 258 249 252 265 244 217 208 191 178 175 170 159 139 125 108 102 100 96 93 87 82 79 74 70 67 66 66 64 64 67 66 62 59 57 56 52
234 235 237 243 247 250 252 249 254 261 242 223 219 209 206 211 214 215 204 184 169 157 147 128 103 76 60 56 56 60 61 62 63 61 58 56 56 55 50 44 44 44
234 236 238 242 244 242 244 247 253 258 245 232 230 225 220 220 227 237 238 231 224 217 211 199 144 16 357 352 349 342 335 331 334 357 14 6 1 358 357 356 354 354
231 233 234 238 240 240 241 242 248 254 248 239 239 239 236 232 233 240 244 244 240 235 231 226 234 258 264 272 284 289 289 287 284 281 274 274 279 286 293 299 306 310
229 228 228 231 237 240 240 240 245 251 249 245 243 246 247 244 242 243 245 245 241 237 232 228 236 245 251 260 268 272 277 278 279 281 280 280 280 281 281 282 286 289
224 223 224 228 234 238 239 238 242 247 249 249 248 249 251 252 252 252 252 251 247 245 241 239 244 250 256 264 269 274 276 272 272 278 283 285 283 279 275 275 277 281
222 221 222 226 232 237 238 238 239 241 245 249 250 251 253 255 256 257 258 255 251 250 251 251 253 258 263 268 272 275 274 271 270 273 276 279 278 276 274 272 274 276
234 229 223 224 230 235 237 238 238 239 244 249 252 254 256 258 259 259 260 259 258 259 259 259 259 259 262 270 277 274 264 263 269 269 267 267 268 270 272 273 274 275
246 238 229 228 233 234 235 236 237 239 244 248 251 254 259 263 264 264 265 266 268 268 266 265 263 261 264 270 273 269 257 257 268 274 272 268 264 265 269 272 275 276
248 246 240 235 233 234 235 234 235 238 242 246 249 254 259 263 263 265 267 268 271 273 273 269 262 260 267 268 262 260 259 261 268 276 280 279 273 269 270 274 277 278
249 253 251 241 233 233 234 234 235 239 242 246 251 255 259 261 261 263 266 268 271 274 274 268 259 259 267 266 258 257 261 264 269 275 279 282 280 275 274 276 278 280
252 257 260 254 247 242 238 236 238 241 244 249 254 257 261 264 266 267 267 266 266 267 266 262 258 261 264 261 256 254 256 261 266 269 272 273 273 274 276 276 276 279
249 254 259 262 261 254 245 241 241 242 246 251 255 259 264 267 271 272 266 258 255 256 258 257 256 258 257 254 250 249 252 257 262 265 268 269 270 272 273 274 275 280
246 249 254 259 261 257 250 247 246 245 247 251 254 259 262 262 265 267 260 249 245 248 250 250 249 250 250 248 247 248 252 256 261 266 269 270 270 270 271 274 279 282
243 245 249 253 255 256 254 252 250 248 248 249 253 255 254 251 251 255 254 249 245 245 247 247 248 250 250 251 250 251 254 257 260 264 266 267 268 269 271 275 279 281
242 246 248 250 251 252 254 254 254 252 251 252 252 250 246 243 245 250 252 251 251 251 252 252 254 256 258 259 260 261 263 265 266 267 268 269 270 271 274 277 280 282
243 245 248 250 250 251 252 253 253 253 253 253 251 247 244 246 251 254 255 255 255 257 258 260 262 264 266 266 268 270 273 274 275 277 278 278 278 278 278 280 282 284
243 244 246 249 251 253 254 253 253 252 251 251 250 249 250 253 257 259 260 261 262 264 266 268 270 272 273 275 277 279 280 281 282 282 283 283 283 283 283 283 284 284
241 243 245 248 251 256 258 258 257 254 252 251 252 253 256 258 261 263 264 266 268 270 272 274 276 278 279 280 281 282 282 283 283 282 282 282 282 283 284 285 285 286
245 244 244 245 248 251 254 257 257 257 256 256 257 259 261 263 264 266 267 269 271 273 275 277 279 280 280 281 281 281 281 281 281 281 281 281 282 283 283 284 285 285
256 252 250 251 253 253 253 253 254 254 255 255 257 260 262 264 267 268 270 272 273 275 276 277 278 279 280 280 280 281 281 281 282 282 283 284 285 285 286 286 286 287
262 258 257 258 259 256 252 249 249 250 250 250 252 255 258 262 264 267 269 271 272 273 275 276 276 276 276 277 279 280 280 281 282 283 285 286 286 287 287 287 287 288
264 265 267 266 263 259 252 247 245 246 247 247 247 248 250 254 257 261 264 265 267 269 271 273 273 273 274 275 276 277 278 279 280 281 282 283 283 284 285 286 287 288
Height
3140 3141 3141 3141 3142 3142 3143 3143 3143 3143 3143 3143 3143 3142 3142 3142 3142 3142 3142 3141 3141 3140 3140 3140 3140 3140 3139 3139 3139 3139 3139 3139 3140 3140 3141 3141 3141 3142 3142 3142 3142 3142
3138 3139 3140 3140 3140 3141 3141 3142 3142 3142 3143 3143 3143 3142 3142 3143 3143 3142 3142 3142 3141 3141 3141 3141 3141 3141 3140 3140 3140 3140 3140 3140 3140 3140 3141 3141 3141 3142 3142 3142 3142 3142
3137 3138 3138 3138 3139 3139 3140 3141 3141 3141 3142 3143 3143 3142 3143 3143 3143 3142 3142 3142 3141 3141 3141 3141 3141 3141 3141 3141 3141 3141 3141 3141 3141 3141 3141 3141 3141 3142 3142 3142 3142 3142
3135 3136 3137 3137 3138 3138 3139 3140 3140 3141 3141 3142 3142 3142 3142 3142 3142 3142 3142 3142 3141 3141 3141 3141 3141 3141 3141 3141 3141 3141 3141 3142 3142 3142 3142 3142 3142 3142 3142 3142 3143 3143
3133 3134 3135 3136 3136 3137 3138 3138 3139 3139 3140 3141 3141 3142 3142 3142 3142 3142 3142 3141 3141 3141 3141 3141 3141 3141 3142 3142 3142 3142 3142 3142 3142 3142 3142 3142 3142 3142 3142 3142 3142 3142
3130 3132 3133 3134 3135 3136 3136 3137 3137 3138 3139 3140 3141 3141 3141 3141 3142 3142 3142 3141 3141 3141 3141 3141 3142 3142 3142 3142 3142 3142 3142 3141 3141 3141 3141 3141 3141 3142 3142 3142 3142 3142
3128 3129 3131 3132 3133 3134 3134 3134 3135 3136 3137 3138 3139 3140 3140 3141 3141 3142 3141 3141 3140 3140 3141 3141 3141 3141 3141 3141 3141 3141 3141 3142 3141 3141 3141 3141 3141 3141 3141 3141 3142 3142
3125 3126 3128 3129 3130 3131 3132 3133 3133 3135 3136 3137 3138 3139 3139 3140 3140 3140 3140 3140 3140 3140 3140 3140 3140 3139 3139 3140 3140 3140 3140 3141 3141 3141 3141 3141 3141 3141 3141 3141 3141 3141
3123 3124 3125 3126 3128 3129 3130 3131 3132 3133 3134 3135 3136 3137 3137 3138 3138 3138 3139 3139 3139 3139 3139 3139 3138 3138 3138 3139 3139 3139 3139 3139 3139 3140 3140 3140 3140 3140 3140 3140 3140 3140
3121 3122 3123 3124 3125 3126 3128 3129 3130 3131 3132 3132 3133 3135 3135 3136 3136 3136 3137 3137 3138 3138 3139 3138 3138 3138 3138 3138 3138 3138 3138 3138 3138 3138 3138 3139 3139 3138 3139 3138 3138 3138
3120 3120 3120 3122 3124 3125 3126 3127 3128 3129 3129 3130 3131 3132 3133 3134 3134 3134 3134 3135 3135 3137 3137 3137 3137 3137 3137 3137 3137 3136 3136 3136 3136 3136 3136 3136 3136 3137 3137 3137 3136 3136
3118 3118 3119 3122 3123 3123 3124 3125 3125 3126 3127 3128 3129 3130 3131 3131 3132 3132 3132 3133 3133 3134 3135 3135 3135 3135 3135 3135 3135 3135 3134 3134 3134 3133 3133 3134 3134 3134 3135 3135 3135 3135
3117 3116 3118 3120 3121 3121 3122 3122 3123 3124 3125 3126 3127 3128 3129 3129 3129 3129 3130 3130 3130 3131 3132 3132 3132 3132 3132 3132 3132 3132 3132 3132 3131 3131 3131 3131 3132 3133 3133 3133 3133 3133
3115 3115 3116 3117 3118 3118 3119 3120 3121 3121 3122 3123 3124 3125 3126 3126 3126 3127 3127 3127 3127 3128 3128 3128 3128 3128 3129 3129 3129 3129 3130 3130 3129 3130 3130 3130 3130 3130 3131 3131 3131 3130
3114 3114 3114 3114 3115 3116 3117 3118 3118 3119 3120 3121 3122 3122 3123 3123 3123 3123 3124 3124 3124 3124 3125 3125 3125 3125 3126 3126 3127 3127 3128 3128 3128 3128 3128 3128 3129 3129 3129 3128 3128 3128
3112 3112 3112 3113 3114 3115 3115 3115 3116 3117 3118 3118 3119 3119 3120 3120 3120 3120 3120 3120 3121 3121 3122 3122 3123 3123 3123 3124 3124 3125 3125 3126 3126 3126 3126 3126 3127 3127 3127 3126 3125 3126
3109 3110 3111 3111 3112 3112 3113 3113 3114 3115 3115 3116 3116 3116 3117 3117 3117 3117 3117 3118 3119 3119 3120 3120 3121 3121 3121 3122 3122 3123 3123 3124 3124 3124 3124 3125 3125 3125 3124 3123 3123 3125
3107 3108 3109 3109 3110 3110 3111 3111 3112 3112 3113 3113 3113 3114 3114 3114 3115 3115 3115 3116 3117 3118 3118 3118 3119 3119 3120 3120 3120 3121 3121 3122 3122 3122 3122 3123 3123 3123 3122 3121 3121 3121
3105 3106 3106 3107 3107 3108 3109 3109 3110 3110 3110 3110 3111 3111 3112 3112 3113 3113 3114 3114 3115 3116 3116 3117 3117 3117 3118 3118 3118 3119 3119 3120 3120 3120 3120 3120 3120 3120 3120 3119 3118 3118
3103 3103 3104 3104 3105 3105 3106 3106 3107 3107 3108 3108 3108 3109 3110 3110 3111 3111 3112 3113 3113 3114 3114 3114 3115 3115 3116 3116 3116 3117 3117 3117 3117 3117 3117 3117 3117 3117 3117 3116 3116 3115
3100 3101 3101 3101 3102 3103 3103 3104 3105 3105 3106 3106 3106 3107 3108 3108 3109 3110 3110 3110 3111 3111 3112 3112 3113 3113 3113 3113 3113 3114 3114 3114 3114 3114 3114 3114 3114 3113 3113 3113 3112 3112
3098 3098 3098 3099 3099 3100 3100 3101 3102 3103 3104 3104 3105 3105 3106 3106 3107 3107 3108 3108 3109 3109 3109 3110 3110 3110 3110 3110 3110 3110 3111 3111 3111 3111 3111 3111 3110 3110 3110 3109 3109 3108
3095 3095 3095 3095 3096 3097 3097 3098 3099 3100 3101 3101 3102 3102 3103 3103 3104 3104 3105 3106 3106 3106 3107 3107 3107 3107 3107 3107 3107 3107 3108 3108 3108 3108 3108 3108 3107 3107 3107 3106 3106 3105
3093 3093 3093 3093 3094 3094 3095 3095 3096 3097 3098 3099 3099 3100 3100 3101 3101 3102 3102 3103 3103 3103 3104 3104 3104 3104 3104 3104 3104 3104 3104 3104 3104 3104 3104 3104 3104 3104 3103 3103 3102 3102
3089 3090 3090 3091 3091 3092 3093 3093 3094 3094 3095 3095 3096 3097 3097 3098 3098 3098 3099 3099 3100 3100 3101 3101 3101 3101 3101 3101 3101 3101 3101 3101 3101 3101 3101 3101 3100 3100 3100 3099 3099 3098
3086 3086 3087 3087 3088 3088 3089 3090 3090 3091 3091 3092 3092 3093 3093 3094 3094 3094 3095 3096 3096 3097 3097 3098 3098 3098 3098 3098 3098 3098 3098 3098 3097 3097 3097 3097 3097 3097 3096 3096 3095 3095